Location: Unspecified
(0.0000°N, 0.0000°E)
Time: 03:16:51
(UTC+00:00)

CZ-6A DEB - Pass Details

Date: 13 October 2025
Orbit: 818 x 870 km, 98.8° (Epoch: 17 November)

Event Time Altitude Azimuth Distance (km) Brightness Sun altitude
Rises 04:48:43 0° 40° (NE) 3,422 ? -14.2°
Reaches altitude 10° 04:51:43 10° 56° (ENE) 2,480 ? -13.5°
Maximum altitude 04:55:40 20° 103° (ESE) 1,844 ? -12.5°
Drops below altitude 10° 04:59:36 10° 149° (SSE) 2,462 ? -11.6°
Sets 05:02:32 0° 165° (SSE) 3,389 ? -10.8°
